COSMOS 2526

Last updated on Oct. 1, 2020, 5:42 a.m. UTC

1 43432U 18037A   20274.87757538 -.00000358  00000-0  00000-0 0  9997
2 43432   0.0219 136.0047 0000368 125.0412 193.0259  1.00272360  9057
UTC
Height (km)
Latitude
Longitude
Inclination
Orbital Period
UTC large
Height (km)
Speed (km/s)
/
Latitude / Longitude
Inclination (degrees)
Orbital Period (minutes)
Azimuth
Elevation
Range (km)
Doppler Factor
iOS Compass Heading
iOS Angle

Next 30 passes for location: Hong Kong

Rise time Rise Azimuth (degrees) Set time Set Azimuth (degrees) Duration Max altitude (degrees)

No matching passes for this satellites